Lorain / Elyria, OH

1:57 PM EDT on October 17, 2017 (GMT -0400)
Lorain County Regional

Weather History for KLPR - April, 2013

Change the Weather History Date:

Friday, April 5, 2013

  Actual Average (KCLE) Record (KCLE)
Temperature  
Mean Temperature 39 °F -  
Max Temperature 46 °F 52 °F 81 °F (1988)
Min Temperature 32 °F 34 °F 16 °F (1881)
Degree Days  
Heating Degree Days 26    
Moisture  
Dew Point 23 °F    
Average Humidity 53    
Maximum Humidity 76    
Minimum Humidity 35    
Precipitation  
Precipitation 0.00 in - - ()
Sea Level Pressure  
Sea Level Pressure 30.09 in    
Wind  
Wind Speed 9 mph (NNE)    
Max Wind Speed 16 mph    
Max Gust Speed 25 mph    
Visibility 10 miles    
Events      
Averages and records for this station are not official NWS values.
T = Trace of Precipitation, MM = Missing Value Source: NWS Daily Summary

Daily Weather History Graph

Daily Weather History Graph

Search for Another Location

Airport or City:

Trip Planner

Search our weather history database for the weather conditions in past years. The results will help you decide how hot, cold, wet, or windy it might be!

Date:

Astronomy

Apr. 05, 2013 Rise Set
Actual Time 7:04 AM EDT 7:58 PM EDT
Civil Twilight 6:36 AM EDT 8:26 PM EDT
Nautical Twilight 6:03 AM EDT 9:00 PM EDT
Astronomical Twilight 5:28 AM EDT 9:34 PM EDT
Moon 4:14 AM EDT (4/5) 3:18 PM EDT (4/5)
Length of Visible Light 13h 49m
Length of Day
12h 53m
Waning Crescent, 24% of the Moon is Illuminated
Apr 5
Waning Crescent
Apr 10
New
Apr 18
First Quarter
Apr 25
Full
May 2
Last Quarter

Hourly Weather History & Observations

Time (EDT) Temp. Windchill Dew Point Humidity Pressure Visibility Wind Dir Wind Speed Gust Speed Precip Events Conditions
12:53 AM 39.0 °F 34.8 °F 16.0 °F 39% 29.96 in 10.0 mi SW 5.8 mph - N/A   Clear
1:53 AM 37.0 °F 31.6 °F 16.0 °F 42% 29.96 in 10.0 mi WSW 6.9 mph - N/A   Clear
2:53 AM 39.0 °F 34.0 °F 16.0 °F 39% 29.95 in 10.0 mi West 6.9 mph - N/A   Clear
3:53 AM 37.9 °F 34.4 °F 19.9 °F 48% 29.95 in 10.0 mi West 4.6 mph - N/A   Mostly Cloudy
4:53 AM 41.0 °F 38.0 °F 18.0 °F 40% 29.96 in 10.0 mi WNW 4.6 mph - N/A   Overcast
5:53 AM 39.9 °F 34.5 °F 27.0 °F 60% 29.98 in 10.0 mi NNE 8.1 mph - N/A   Overcast
6:53 AM 39.0 °F 35.7 °F 30.0 °F 70% 30.01 in 10.0 mi NE 4.6 mph - N/A   Overcast
7:53 AM 39.0 °F 32.3 °F 30.0 °F 70% 30.04 in 8.0 mi NNE 10.4 mph - N/A   Overcast
8:53 AM 39.0 °F 33.4 °F 32.0 °F 76% 30.07 in 6.0 mi NNE 8.1 mph - N/A   Haze
9:53 AM 39.9 °F 32.5 °F 30.9 °F 70% 30.09 in 8.0 mi NNE 12.7 mph - N/A   Mostly Cloudy
10:53 AM 42.1 °F 34.2 °F 30.0 °F 62% 30.11 in 10.0 mi NNE 16.1 mph - N/A   Clear
11:53 AM 43.0 °F 36.4 °F 28.0 °F 56% 30.12 in 10.0 mi NE 12.7 mph - N/A   Clear
12:53 PM 44.1 °F 37.7 °F 28.0 °F 53% 30.13 in 10.0 mi NNE 12.7 mph - N/A   Clear
1:53 PM 44.1 °F 36.8 °F 24.1 °F 45% 30.13 in 10.0 mi North 16.1 mph 25.3 mph N/A   Clear
2:53 PM 45.0 °F 38.5 °F 21.9 °F 40% 30.13 in 10.0 mi North 13.8 mph 23.0 mph N/A   Clear
3:53 PM 46.0 °F 39.3 °F 19.9 °F 35% 30.13 in 10.0 mi North 16.1 mph 23.0 mph N/A   Clear
4:53 PM 45.0 °F 38.9 °F 21.0 °F 39% 30.12 in 10.0 mi NNE 12.7 mph - N/A   Clear
5:53 PM 45.0 °F 40.1 °F 21.0 °F 39% 30.13 in 10.0 mi NE 9.2 mph - N/A   Clear
6:53 PM 42.1 °F 35.2 °F 23.0 °F 47% 30.16 in 10.0 mi NE 12.7 mph - N/A   Clear
7:53 PM 37.9 °F 30.0 °F 24.1 °F 57% 30.17 in 10.0 mi ENE 12.7 mph - N/A   Clear
8:53 PM 36.0 °F 29.6 °F 24.1 °F 62% 30.20 in 10.0 mi ENE 8.1 mph - N/A   Clear
9:53 PM 34.0 °F 28.0 °F 23.0 °F 64% 30.23 in 10.0 mi East 6.9 mph - N/A   Clear
10:53 PM 32.0 °F 24.8 °F 21.0 °F 64% 30.24 in 10.0 mi East 8.1 mph - N/A   Clear
11:53 PM 32.0 °F 28.7 °F 19.0 °F 59% 30.23 in 10.0 mi ESE 3.5 mph - N/A   Clear